sat.trackr.live / text

‹ back to catalog

STARLINK-11748 [DTC]

NORAD 64373 · 2025-127D

PAYLOAD ACTIVE UNKNOWN

§ Identity

Operator
Country
US
Launch date
2025-06-13
Launch site
AFETR
Launch vehicle
Mass (kg)
RCS (m²)

Purposes: comms

External: N2YO · Heavens-Above · Gunter

§ Orbital elements

Epoch: 2026-09-20T22:19:06.790944Z

Period
91.67 min
Inclination
42.9981°
Eccentricity
0.0001909
Mean motion
15.70897534 rev/d
Perigee alt
355.0 km
Apogee alt
357.6 km
Semi-major
6,734.5 km
B*
1.3291e-3
RAAN
348.1371°
Arg perigee
297.2764°
Mean anomaly
62.7909°
Rev number
7,420

§ Raw data

STARLINK-11748 [DTC]1 64373U 25127D   26263.92993971  .00174129  00000+0  13291-2 0  99992 64373  42.9981 348.1371 0001909 297.2764  62.7909 15.70897534 74206

JSON: /api/v1/satellites/64373 · /tle

For live sub-satellite position, see the globe view (requires WebGL).

§ Visibility from observer

Set your observer location to see the next 7 days of passes ≥ 10°. The values pass through the URL so the page stays shareable.

No JS? Fill the form by hand. The geolocation button needs JavaScript.